This demonstration page uses our WeatherBlox Daily Observations layout. Learn more.

41.55636, -103.73856

Hourly Observations for March 15, 2015

Temp ( °F °C ) Dew Point ( °F °C ) Humidity (%) Winds ( mph kmh ) Pressure ( in mb ) Visibility ( mi km ) Precip ( " mm )
12:53 am 00:53 Clear 57 13.9 22 -5.6 26 26 SSW 10 17 29.96 1014 10 16.0934 0 0
1:53 am 01:53 Clear 61 16.1 25 -3.9 25 25 SW 14 22 29.92 1013 10 16.0934 0 0
2:53 am 02:53 Clear 61 16.1 25 -3.9 25 25 WSW 15 24 29.93 1014 10 16.0934 0 0
3:53 am 03:53 Clear 62 16.7 24 -4.4 23 23 WSW 10 17 29.93 1014 10 16.0934 0 0
4:53 am 04:53 Clear 59 15 25 -3.9 27 27 WSW 8 13 29.94 1014 10 16.0934 0 0
5:53 am 05:53 Clear 58 14.4 24 -4.4 27 27 W 5 7 29.98 1015 10 16.0934 0 0
6:53 am 06:53 Clear 43 6.1 25 -3.9 49 49 Calm 30.06 1018 10 16.0934 0 0
7:53 am 07:53 Sunny 49 9.4 30 -1.1 48 48 WNW 5 7 30.07 1018 10 16.0934 0 0
8:53 am 08:53 Sunny 64 17.8 30 -1.1 28 28 W 10 17 30.03 1017 10 16.0934 0 0
9:53 am 09:53 Sunny 69 20.6 29 -1.7 22 22 WNW 17 28 30.04 1017 10 16.0934 0 0
10:53 am 10:53 Sunny 73 22.8 29 -1.7 19 19 WNW 16 26 30.01 1016 10 16.0934 0 0
11:53 am 11:53 Sunny 78 25.6 28 -2.2 16 16 W 17 28 29.99 1016 10 16.0934 0 0
12:53 pm 12:53 Sunny 80 26.7 30 -1.1 16 16 W 15 24 29.96 1015 10 16.0934 0 0
1:53 pm 13:53 Sunny 82 27.8 32 0 16 16 W 15 24 29.91 1013 10 16.0934 0 0
2:53 pm 14:53 Sunny 83 28.3 33 0.6 17 17 W 15 24 29.88 1012 10 16.0934 0 0
3:53 pm 15:53 Sunny 84 28.9 35 1.7 17 17 WNW 10 17 29.86 1011 10 16.0934 0 0
4:53 pm 16:53 Sunny 83 28.3 36 2.2 19 19 WNW 14 22 29.85 1011 10 16.0934 0 0
5:53 pm 17:53 Sunny 80 26.7 36 2.2 20 20 WNW 12 19 29.87 1012 10 16.0934 0 0
6:53 pm 18:53 Sunny 71 21.7 37 2.8 29 29 SSW 6 9 29.93 1014 10 16.0934 0 0
7:53 pm 19:53 Clear 68 20 36 2.2 31 31 S 5 7 29.93 1013 10 16.0934 0 0
8:53 pm 20:53 Clear 60 15.6 29 -1.7 31 31 Calm 29.91 1013 10 16.0934 0 0
9:53 pm 21:53 Clear 55 12.8 29 -1.7 37 37 ESE 5 7 29.91 1013 10 16.0934 0 0
10:53 pm 22:53 Clear 53 11.7 27 -2.8 37 37 Calm 29.9 1012 10 16.0934 0 0
11:53 pm 23:53 Clear 51 10.6 27 -2.8 39 39 VRB 3 6 29.88 1012 10 16.0934 0 0

Powered by AerisWeather